La Grande, OR

8:56 AM PST on December 07, 2019 (GMT -0800)
La Grande-Union County

Weather History for KLGD - September, 2019

Change the Weather History Date:

Tuesday, September 24, 2019

  Actual Average Record
Temperature  
Mean Temperature 65 °F -  
Max Temperature 75 °F 71 °F 93 °F (2011)
Min Temperature 54 °F 38 °F 24 °F (2000)
Growing Degree Days 15 (Base 50)    
Moisture  
Dew Point 44 °F    
Average Humidity 54    
Maximum Humidity 78    
Minimum Humidity 31    
Precipitation  
Precipitation 0.00 in - - ()
Sea Level Pressure  
Sea Level Pressure 30.55 in    
Wind  
Wind Speed 7 mph (NNW)    
Max Wind Speed 17 mph    
Max Gust Speed 23 mph    
Visibility 10 miles    
Events      
Averages and records for this station are not official NWS values.
T = Trace of Precipitation, MM = Missing Value Source: NWS Daily Summary

Daily Weather History Graph

Daily Weather History Graph

Search for Another Location

Airport or City:

Astronomy

Sep. 24, 2019 Rise Set
Actual Time 6:41 AM PDT 6:45 PM PDT
Civil Twilight 6:11 AM PDT 7:15 PM PDT
Nautical Twilight 5:37 AM PDT 7:49 PM PDT
Astronomical Twilight 5:02 AM PDT 8:25 PM PDT
Moon 1:14 AM PDT (9/24) 4:51 PM PDT (9/24)
Length of Visible Light 13h 03m
Length of Day
12h 04m
Waning Crescent, 22% of the Moon is Illuminated
Sep 24
Waning Crescent
Sep 28
New
Oct 5
First Quarter
Oct 13
Full
Oct 21
Last Quarter

Hourly Weather History & Observations

Time (PDT) Temp. Dew Point Humidity Pressure Visibility Wind Dir Wind Speed Gust Speed Precip Events Conditions
12:56 AM 55.0 °F 45.0 °F 69% 30.59 in 10.0 mi South 5.8 mph - N/A   Mostly Cloudy
1:56 AM 55.9 °F 44.1 °F 64% 30.60 in 10.0 mi Calm Calm - N/A   Overcast
2:56 AM 55.0 °F 45.0 °F 69% 30.60 in 10.0 mi East 6.9 mph - N/A   Overcast
3:56 AM 59.0 °F 44.1 °F 58% 30.61 in 10.0 mi NNW 3.5 mph - N/A   Overcast
4:56 AM 57.0 °F 44.1 °F 62% 30.61 in 10.0 mi Calm Calm - N/A   Overcast
5:56 AM 57.9 °F 48.9 °F 72% 30.63 in 10.0 mi West 5.8 mph - N/A   Overcast
6:56 AM 57.0 °F 50.0 °F 77% 30.63 in 10.0 mi Calm Calm - N/A   Overcast
7:53 AM 57.2 °F 50.0 °F 77% 30.25 in 10.0 mi ENE 3.5 mph - N/A   Overcast
7:56 AM 57.9 °F 50.0 °F 75% 30.63 in 10.0 mi East 3.5 mph - N/A   Overcast
8:38 AM 57.2 °F 50.0 °F 77% 30.24 in 10.0 mi Calm Calm - N/A   Mostly Cloudy
8:56 AM 57.9 °F 51.1 °F 78% 30.63 in 10.0 mi NE 4.6 mph - N/A   Partly Cloudy
9:56 AM 63.0 °F 52.0 °F 67% 30.63 in 10.0 mi ENE 9.2 mph - N/A   Mostly Cloudy
10:31 AM 66.2 °F 51.8 °F 60% 30.25 in 10.0 mi Variable 6.9 mph 18.4 mph N/A   Overcast
10:56 AM 66.0 °F 48.0 °F 52% 30.63 in 10.0 mi West 11.5 mph 20.7 mph N/A   Mostly Cloudy
11:56 AM 72.0 °F 48.9 °F 44% 30.60 in 10.0 mi WNW 11.5 mph - N/A   Scattered Clouds
12:56 PM 73.9 °F 48.0 °F 40% 30.58 in 10.0 mi NW 17.3 mph 21.9 mph N/A   Clear
1:56 PM 75.0 °F 45.0 °F 34% 30.56 in 10.0 mi NW 16.1 mph 20.7 mph N/A   Clear
2:56 PM 75.9 °F 45.0 °F 33% 30.56 in 10.0 mi WNW 17.3 mph 23.0 mph N/A   Clear
3:56 PM 75.0 °F 45.0 °F 34% 30.54 in 10.0 mi NW 17.3 mph 23.0 mph N/A   Clear
4:56 PM 73.0 °F 41.0 °F 31% 30.54 in 10.0 mi NW 15.0 mph - N/A   Clear
5:56 PM 70.0 °F 37.9 °F 31% 30.54 in 10.0 mi NW 12.7 mph - N/A   Partly Cloudy
6:56 PM 64.9 °F 39.0 °F 39% 30.54 in 10.0 mi NNW 12.7 mph - N/A   Clear
7:56 PM 62.1 °F 34.0 °F 35% 30.56 in 10.0 mi NNW 10.4 mph - N/A   Clear
8:56 PM 57.0 °F 34.0 °F 42% 30.56 in 10.0 mi West 8.1 mph - N/A   Clear
9:56 PM 55.9 °F 30.9 °F 39% 30.57 in 10.0 mi NE 4.6 mph - N/A   Clear
10:56 PM 59.0 °F 30.9 °F 35% 30.57 in 10.0 mi Variable 4.6 mph - N/A   Clear
11:56 PM 54.0 °F 36.0 °F 51% 30.58 in 10.0 mi North 9.2 mph - N/A   Clear